TimeEDT,TemperatureF,Dew PointF,Humidity,Sea Level PressureIn,VisibilityMPH,Wind Direction,Wind SpeedMPH,Gust SpeedMPH,PrecipitationIn,Events,Conditions,WindDirDegrees,DateUTC
12:53 AM,81.0,71.1,72,29.96,10.0,ENE,9.2,-,N/A,,Clear,60,2013-10-11 04:53:00
1:53 AM,81.0,70.0,69,29.95,10.0,ENE,9.2,-,N/A,,Clear,70,2013-10-11 05:53:00
2:53 AM,80.1,71.1,74,29.94,10.0,East,5.8,-,N/A,,Clear,80,2013-10-11 06:53:00
3:53 AM,81.0,71.1,72,29.93,10.0,ENE,6.9,-,N/A,,Clear,70,2013-10-11 07:53:00
4:53 AM,80.1,71.1,74,29.93,10.0,ENE,9.2,-,N/A,,Clear,60,2013-10-11 08:53:00
5:53 AM,80.1,73.0,79,29.94,10.0,ENE,10.4,-,N/A,,Clear,60,2013-10-11 09:53:00
6:53 AM,80.1,72.0,76,29.96,10.0,ENE,8.1,-,N/A,,Partly Cloudy,60,2013-10-11 10:53:00
7:53 AM,80.1,72.0,76,29.97,10.0,NE,9.2,-,N/A,,Clear,40,2013-10-11 11:53:00
8:53 AM,82.0,72.0,71,29.99,10.0,NE,11.5,-,N/A,,Clear,50,2013-10-11 12:53:00
9:53 AM,82.9,72.0,69,30.00,10.0,NE,13.8,-,N/A,,Clear,40,2013-10-11 13:53:00
10:53 AM,84.0,71.1,65,30.01,10.0,NE,12.7,-,N/A,,Clear,50,2013-10-11 14:53:00
11:53 AM,84.9,71.1,63,30.00,10.0,NE,12.7,-,N/A,,Clear,50,2013-10-11 15:53:00
12:53 PM,86.0,72.0,63,29.99,10.0,NE,12.7,-,N/A,,Clear,40,2013-10-11 16:53:00
1:53 PM,86.0,70.0,59,29.97,10.0,NE,11.5,-,N/A,,Clear,40,2013-10-11 17:53:00
2:53 PM,86.0,68.0,55,29.95,10.0,NE,12.7,-,N/A,,Clear,50,2013-10-11 18:53:00
3:53 PM,87.1,68.0,53,29.94,10.0,NE,11.5,-,N/A,,Clear,50,2013-10-11 19:53:00
4:53 PM,84.9,70.0,61,29.94,10.0,East,11.5,-,N/A,,Clear,80,2013-10-11 20:53:00
5:53 PM,84.0,69.1,61,29.94,10.0,East,12.7,16.1,N/A,,Clear,80,2013-10-11 21:53:00
6:53 PM,82.0,69.1,65,29.94,10.0,ENE,10.4,-,N/A,,Clear,70,2013-10-11 22:53:00
7:53 PM,82.0,68.0,62,29.96,10.0,East,9.2,-,N/A,,Clear,80,2013-10-11 23:53:00
8:53 PM,82.0,66.9,60,29.97,10.0,East,9.2,-,N/A,,Clear,80,2013-10-12 00:53:00
9:53 PM,81.0,66.9,62,29.98,10.0,ENE,11.5,-,N/A,,Clear,70,2013-10-12 01:53:00
10:53 PM,81.0,68.0,65,29.99,10.0,East,9.2,-,N/A,,Clear,80,2013-10-12 02:53:00
11:53 PM,81.0,66.9,62,29.97,10.0,East,6.9,-,N/A,,Clear,80,2013-10-12 03:53:00